Content
SEND FEEDBACK

Daily
Averages
Monthly
Summary
Canada

QUEBEC CITY, QUEBEC


Home > North America > Canada > Quebec
Elevation: 239 feet     Latitude: 46 48N     Longitude: 071 23W

WEATHER
 
SELECT A DAY
Number of Records: 194,992;   Date Range: 6/30/96 - 9/29/14
 
SHARE

PRINT THIS DATA

[ ← Previous Day ]
WEATHER ALMANAC - JANUARY 29, 2014
[ Next Day → ]
[ °C ]   °F
Weather ElementAverageHighLow
Temperature9.2 °F12.2 °F (12:37 pm)3 °F (7:00 am)
Dewpoint0.8 °F7 °F (7:00 pm)-6 °F (7:00 am)
Humidity66.8 %85 % (6:00 pm)43 % (10:00 am)
Barometer29.94 in30.08 in (1:00 am)29.84 in (1:38 pm)
Wind Speed15.4 mph26.5 mph (2:00 pm)
Wind Gust34.5 mph (2:00 pm)
Weather ElementAverage
Visibility13.5 mi
Wind DirectionWSW (233 °)

Weather ElementTotal
Precipitation---
Heating Degree Days57.4 (Base 65)
Averaged from 37 records on January 29, 2014
WEATHER CONDITIONS BREAKOUT
WIND DIRECTION BREAKOUT
WEATHER BY HOUR - JANUARY 29, 2014
[ °C ]   °F
Local TimeTemperatureDewpointHumidityBarometerVisibilityWind DirectionWind SpeedGust SpeedPrecipitationEventsConditions
1:00 AM9.0 °F0.0 °F55 %30.08 inWSW (250°)13.8 mph
1:00 AM8.6 °F-0.4 °F67 %30.07 in15.0 miWSW (240°)20.7 mph28.8 mphOvercast
2:00 AM8.6 °F-0.4 °F67 %30.08 in15.0 miWSW (240°)16.1 mph27.6 mphOvercast
3:00 AM6.8 °F-2.2 °F67 %30.08 in15.0 miSW (220°)12.7 mph21.9 mphScattered Clouds
4:00 AM6.0 °F-2.0 °F57 %30.05 inSSW (210°)5.8 mph
4:00 AM6.8 °F-4.0 °F61 %30.06 in15.0 miSSW (200°)10.4 mphMostly Cloudy
5:00 AM6.8 °F-4.0 °F61 %30.05 in15.0 miSW (220°)12.7 mph18.4 mphMostly Cloudy
6:00 AM5.0 °F-5.8 °F61 %30.03 in15.0 miSW (220°)11.5 mph18.4 mphMostly Cloudy
7:00 AM5.0 °F-5.8 °F61 %30.01 in30.0 miSW (220°)9.2 mphScattered Clouds
7:00 AM3.0 °F-6.0 °F54 %30.01 inWest (260°)4.6 mph
8:00 AM3.2 °F-5.8 °F66 %30.00 in30.0 miWSW (250°)4.6 mphMostly Cloudy
9:00 AM8.6 °F-4.0 °F57 %29.99 in30.0 miSW (230°)10.4 mphMostly Cloudy
10:00 AM10.0 °F-2.0 °F43 %29.97 inWSW (240°)10.4 mph
10:00 AM8.6 °F-2.2 °F62 %29.97 in30.0 miSW (230°)21.9 mphMostly Cloudy
11:00 AM10.4 °F-0.4 °F62 %29.94 in30.0 miSW (220°)17.3 mph24.2 mphMostly Cloudy
12:00 PM10.4 °F-0.4 °F62 %29.88 in30.0 miSW (230°)25.3 mph32.2 mphMostly Cloudy
12:37 PM12.2 °F-0.4 °F57 %29.86 in10.0 miSW (220°)21.9 mph29.9 mphSnowLight Snow Showers
1:00 PM12.2 °F-0.4 °F57 %29.86 in6.0 miWSW (240°)21.9 mph32.2 mphSnowLight Snow Showers
1:00 PM12.0 °F1.0 °F47 %29.86 inWSW (240°)15.0 mph
1:38 PM10.4 °F3.2 °F73 %29.84 in1.8 miWSW (240°)23.0 mphSnowLight Snow Showers
2:00 PM10.4 °F1.4 °F67 %29.84 in4.0 miWSW (240°)26.5 mph34.5 mphSnowLight Snow Showers
3:00 PM10.4 °F3.2 °F73 %29.85 in4.0 miWSW (240°)20.7 mph29.9 mphSnowLight Snow Showers
4:00 PM11.0 °F6.0 °F73 %29.84 inWSW (240°)9.2 mph
4:00 PM10.4 °F3.2 °F73 %29.84 in4.0 miSW (220°)16.1 mph24.2 mphSnowLight Snow Showers
4:30 PM10.4 °F5.0 °F79 %29.84 in1.5 miSW (220°)20.7 mphSnowLight Snow Showers
5:00 PM10.4 °F5.0 °F79 %29.86 in1.5 miSW (230°)17.3 mph23.0 mphSnowLight Snow Showers
5:27 PM10.4 °F5.0 °F79 %29.86 in1.0 miSW (220°)17.3 mph24.2 mphSnowLight Snow Showers
6:00 PM10.4 °F6.8 °F85 %29.88 in1.0 miSW (230°)16.1 mphSnowLight Snow Showers
6:35 PM10.4 °F6.8 °F85 %29.89 in4.0 miWSW (240°)17.3 mph26.5 mphSnowLight Snow Showers
7:00 PM12.0 °F7.0 °F71 %29.90 inWSW (250°)13.8 mph
7:00 PM10.4 °F5.0 °F79 %29.90 in8.0 miWSW (240°)20.7 mph27.6 mphSnowLight Snow Showers
7:23 PM10.4 °F3.2 °F73 %29.91 in15.0 miSW (230°)18.4 mph28.8 mphSnowLow Drifting Snow
8:00 PM8.6 °F1.4 °F73 %29.92 in15.0 miWSW (240°)12.7 mphScattered Clouds
9:00 PM10.4 °F3.2 °F73 %29.95 in15.0 miWSW (240°)13.8 mphMostly Cloudy
10:00 PM10.0 °F4.0 °F65 %29.96 inWSW (240°)8.1 mph
10:00 PM10.4 °F3.2 °F73 %29.93 in15.0 miWSW (240°)18.4 mphOvercast
11:00 PM8.6 °F1.4 °F73 %29.99 in15.0 miWSW (240°)13.8 mphMostly Cloudy
Hourly data recorded from CYQB, located miles away from Quebec City, Quebec







STORIES FROM OUR PARTNERS